Location: *
(42.0175°N, 9.4056°E)
Time: 13:58:34
(UTC+00:00)

Cosmos 1980 Rocket - Pass Details

Date: 25 August 2019
Orbit: 829 x 850 km, 71.0° (Epoch: 20 September)

Event Time Altitude Azimuth Distance (km) Brightness Sun altitude
Rises 19:58:02 0° 341° (NNW) 3,393 6.2 -19.3°
Reaches altitude 10° 20:00:38 10° 348° (NNW) 2,458 5.3 -19.7°
Maximum altitude 20:05:57 42° 59° (ENE) 1,191 2.8 -20.4°
Enters shadow 20:07:22 35° 94° (E) 1,323 2.8 -20.7°
